Regional Weather Roundup
Issued by NWS

Home | Current Version | Previous Version | Graphics & Text | Print | Product List | Glossary On
Versions: 1 2 3 4 5 6 7 8 9 10 11 12 13 14 15 16 17 18 19 20 21 22 23 24 25 26 27 28 29 30 31 32 33 34 35 36 37 38 39 40 41 42 43 44 45 46 47 48 49 50
000
ASUS45 KTFX 180719
RWRMT
MONTANA HOURLY WEATHER ROUNDUP
NATIONAL WEATHER SERVICE GREAT FALLS MT
119 AM MDT FRI APR 18 2014

NOTE: "FAIR" INDICATES FEW OR NO CLOUDS BELOW 12000 FEET WITH NO
SIGNIFICANT WEATHER AND/OR OBSTRUCTIONS TO VISIBILITY.

* THESE STATIONS ARE NOT UNDER NWS QUALITY CONTROL. THEY DO NOT
   REPORT WEATHER SUCH AS PRECIPITATION OR FOG.

MTZ001>007-043-180800-
WEST OF THE DIVIDE
CITY           SKY/WX    TMP DP  RH WIND       PRES   REMARKS
KALISPELL      LGT RAIN  45  43  93 SE6       29.70F
MISSOULA       CLOUDY    45  45 100 W6        29.77R
BUTTE          CLOUDY    50  34  54 SW7       29.73R
MULLAN PASS    LGT SNOW  30  30 100 SW7       29.74S VSB 1/2  WCI  23
* ESSEX        N/A       36  35  96 N/A        N/A
* LINCOLN      N/A       42  38  86 NW3        N/A
* LOOKOUT PASS N/A       36  35  96 E4         N/A
* POLSON       N/A       42  42 100 SE1        N/A
* SEELEY LAKE  N/A       40  39  96 N1         N/A
* THOMP F APT  CLOUDY    47  24  40 SE10G18    N/A
* YAAK HILL    N/A       44  41  89 E1         N/A
$$

MTZ008-052>055-180800-
SOUTHWEST MONTANA
CITY           SKY/WX    TMP DP  RH WIND       PRES   REMARKS
BOZEMAN        MOCLDY    46  30  54 SE9       29.68F
DILLON         MOCLDY    55  25  31 S23G33    29.68S
W YELLOWSTONE  N/A       35  25  67 S2         N/A
* THREE FORKS  MOCLDY    59  30  33 S14G20     N/A
* BOULDER HILL N/A       43  29  58 S4         N/A
* MONIDA PASS  N/A       42  24  49 SE18       N/A
* RAYNOLDS PAS N/A       40  26  57 S17        N/A   WCI  31
* WHITEHALL    N/A       52  27  38 NW5G11     N/A
* WISE RIVER   N/A       43  32  65 SE7        N/A
$$

MTZ009>010-012-014-046-048-049-054-180800-
EAST SLOPES AND CENTRAL MONTANA
CITY           SKY/WX    TMP DP  RH WIND       PRES   REMARKS
CUT BANK       MOCLDY    43  34  71 W12       29.64F
GREAT FALLS    CLOUDY    45  43  93 E6        29.66F
HELENA         CLOUDY    52  36  55 W9        29.65S
MALMSTROM AFB  CLOUDY    46  41  83 SE7       29.64F
* CONRAD       PTCLDY    43  37  79 N/A        N/A
* DEARBORN     N/A       51  38  61 N4G9       N/A
* EAST GLACIER N/A       40  34  79 W14G21     N/A   WCI  32
* MONARCH      N/A       42  32  68 SW7        N/A
* PENDROY      N/A       40  34  79 SW2        N/A
* ROGERS PASS  N/A       41  34  76 SE4G11     N/A
* SAINT MARY   N/A       34  31  89 S1G6       N/A
* SWEET GRASS  N/A       42  40  93 SW8        N/A
* WHITE SULPH  N/A       47  29  50 NE6G12     N/A
$$

MTZ011-013-016-021-035-040-045-047-050-051-180800-
NORTH CENTRAL MONTANA
CITY           SKY/WX    TMP DP  RH WIND       PRES   REMARKS
HAVRE          MOCLDY    46  39  77 NE8       29.67F
LEWISTOWN      CLOUDY    45  34  65 E10       29.72F
* CHINOOK      MOCLDY    46  39  77 E8        29.69F
* FORT BENTON  CLOUDY    52  41  66 E6        29.67F
* MALTA APT    MOCLDY    46  36  68 SE5       29.73F
* CHESTER      N/A       46  38  74 SE5G10     N/A
* DENTON       N/A       46  35  66 SE2        N/A
* GEYSER       N/A       43  40  89 N5         N/A
* JUDITH GAP   N/A       43  28  56 SW4        N/A
* LOMA         N/A       49  43  80 NE7        N/A
$$

MTZ017>020-022>027-061-062-180800-
NORTHEAST MONTANA
CITY           SKY/WX    TMP DP  RH WIND       PRES   REMARKS
GLASGOW        LGT RAIN  43  36  76 E18       29.79F
GLENDIVE       CLOUDY    43  30  60 E8        29.89F
JORDAN         PTCLDY    45  37  74 E9        29.78F
SIDNEY         CLOUDY    43  28  56 SE9       29.94F
WOLF POINT     LGT RAIN  45  30  56 E16       29.87S
* BEAVER HILL  N/A       39  30  70 E24G34     N/A   WCI  28
* CIRCLE       N/A       46  34  63 SE7G17     N/A
* LINDSAY DVD  N/A       41  31  68 E13        N/A
* NAVAJO       N/A       34  31  89 SE10       N/A   WCI  26
* SACO         N/A       45  32  60 E18G23     N/A
$$

MTZ028>042-056>058-180800-
SOUTHCENTRAL AND SOUTHEAST MONTANA
CITY           SKY/WX    TMP DP  RH WIND       PRES   REMARKS
BAKER          PTCLDY    39  30  70 SE17      29.88F WCI  30
BILLINGS       MOCLDY    52  30  43 SE6       29.72F
LIVINGSTON     CLOUDY    46  28  50 SE5       29.70F
MILES CITY     CLOUDY    46  36  68 SE16      29.80F
* LAUREL APT   PTCLDY    46  28  50 W5         N/A
* ROUNDUP APT  PTCLDY    46  30  54 N/A        N/A
* HYSHAM       N/A       51  24  35 E4G10      N/A
* LAME DEER    N/A       46  32  58 SE8        N/A
* REED POINT   N/A       40  31  70 E3         N/A
* ROSCOE HILL  N/A       53  12  19 S8G16      N/A
$$

REGIONAL REPORTS...DAKOTAS
CITY           SKY/WX    TMP DP  RH WIND       PRES   REMARKS
WILLISTON      LGT RAIN  39  28  65 SE10G18   29.98F WCI  32
DICKINSON      CLOUDY    36  25  64 SE16      29.97F WCI  26
CROSBY         CLEAR     34  27  76 E17       30.00F WCI  23
TIOGA          MOCLDY    36  25  64 SE18G24   30.04F WCI  26
WATFORD CITY   PTCLDY    37  27  67 SE17G22   29.96F WCI  27
BISMARCK       CLOUDY    36  23  59 SE10      30.13S WCI  29
GRAND FORKS    CLOUDY    30  21  69 E5        30.29F WCI  25
FARGO          CLOUDY    34  21  59 E7        30.28S WCI  28
BUFFALO SD     MOCLDY    37  28  70 VRB3      29.85F
RAPID CITY     MOCLDY    37  34  89 SE8       29.92F WCI  31
$$

REGIONAL REPORTS...WYOMING/IDAHO/WASHINGTON
CITY           SKY/WX    TMP DP  RH WIND       PRES   REMARKS
GILLETTE       MOCLDY    45  36  71 S14       29.84F
SHERIDAN       CLOUDY    39  34  82 W3        29.79F
CODY           MOCLDY    48  25  41 SW10      29.80F
YELLOWSTONE LA PTCLDY    27  21  78 W3        29.94F
SALMON         CLOUDY    54  43  67 SE7       29.70S
MULLAN PASS    LGT SNOW  30  30 100 SW7       29.74S VSB 1/2  WCI  23
SAND POINT     N/A       45  45 100 S3        29.71F
SPOKANE        CLOUDY    46  43  89 SW21      29.72S
$$

REGIONAL REPORTS...ALBERTA
CITY           SKY/WX    TMP DP  RH WIND       PRES   REMARKS
CALGARY        FOG       34  30  85 N13       29.63F WCI  25
LETHBRIDGE     CLEAR     37  34  89 SW6       29.61F WCI  32
MEDICINE HAT   CLEAR     46  37  71 S8        29.64F
EDMONTON       LGT SNOW  28  27  96 NE7       29.75F VSB 2 1/2 WCI  21
WATERTON GATE  N/A       39  34  82 SW6        N/A   WCI  35
CARDSTON       N/A       37  34  89 SW8        N/A   WCI  31
MILK RIVER     N/A       43  36  76 SW8        N/A
$$

REGIONAL REPORTS...SASKATCHEWAN
CITY           SKY/WX    TMP DP  RH WIND       PRES   REMARKS
SWIFT CURRENT  MOCLDY    37  34  89 SE22G29   29.76F WCI  26
REGINA         CLOUDY    32  21  64 SE24      29.98F WCI  19
VAL MARIE      N/A       43  34  71 SE16       N/A
ASSINIBOIA     N/A       34  30  85 SE15G21    N/A   WCI  24
CORONACH       N/A       34  32  92 SE15       N/A   WCI  24

$$




USA.gov is the U.S. government's official web portal to all federal, state and local government web resources and services.